User: anonymous   Login
Location: Oshawa
(43.9000°N, 78.8670°W)
Time: 17:27:04
(UTC-04:00)
Language:

Cosmos 1953 Rocket - Orbit

View from above orbital plane
View from above orbital plane
View from above satellite
View from above satellite

Ground track
Ground track

The orbit data is extracted from the following two-line orbital elements,

1 19211U 88050B   15212.16276269  .00000163  00000-0  17156-4 0  9999
2 19211 082.5283 124.8958 0020909 217.9569 254.3506 14.82777451464971
Epoch (UTC): 31 July 2015 03:54:22
Eccentricity: 0.0020909
inclination: 82.5283°
perigee height: 606 km
apogee height: 635 km
right ascension of ascending node: 124.8958°
argument of perigee: 217.9569°
revolutions per day: 14.82777451
mean anomaly at epoch: 254.3506°
orbit number at epoch: 46497

The dashed part of the orbit path shows where the satellite is in the earth's shadow,  

DLR